Stations météo

réclame
Mon MeteoGroup
La Hague, France (7020): Température de l'air & dewpoint: 21.04.2018 08:00:00 - 27.04.2018 08:00:00 (CEST)La Hague, France (7020): Vitesse du vent & gusts: 21.04.2018 08:00:00 - 27.04.2018 08:00:00 (CEST)La Hague, France (7020): Direction du vent: 21.04.2018 08:00:00 - 27.04.2018 08:00:00 (CEST)La Hague, France (7020): reduced air pressure: 21.04.2018 08:00:00 - 27.04.2018 08:00:00 (CEST)La Hague, France (7020): visibility: 21.04.2018 08:00:00 - 27.04.2018 08:00:00 (CEST)La Hague, France (7020): Quantités de précipitations: 21.04.2018 08:00:00 - 27.04.2018 08:00:00 (CEST)
Date & Time tt [°C] td [°C] ff [km/h] ff [knt] fx [km/h] fx [knt] dd ppp [hPa] vv [km] rr [mm]
27.04.2018 08:00:00 9,5 7,3 18 10 31 17 S 1007,7 16 0,0
27.04.2018 07:00:00 9,2 6,8 19 10 29 16 SSE 1008,3 - 0,0
27.04.2018 06:00:00 8,7 6,1 11 6 21 12 ESE 1009,4 - 0,0
27.04.2018 05:00:00 8,7 6,1 14 7 18 10 E 1010,3 14 0,0
27.04.2018 04:00:00 8,7 6,7 13 7 21 11 ESE 1011,6 - 0,0
27.04.2018 03:00:00 8,8 6,4 11 6 16 9 E 1013,0 - 0,0
27.04.2018 02:00:00 8,9 7,0 8 4 10 5 ESE 1014,1 14 0,0
27.04.2018 01:00:00 8,8 6,4 3 2 11 6 S 1015,1 - 0,0
27.04.2018 00:00:00 8,6 6,2 9 5 13 7 S 1016,2 - 0,0
26.04.2018 23:00:00 8,4 6,2 10 5 19 10 S 1016,9 15 0,0
26.04.2018 22:00:00 9,6 6,9 13 7 18 10 SSW 1017,4 - 0,0
26.04.2018 21:00:00 10,0 7,1 15 8 21 11 SW 1017,7 - 0,0
26.04.2018 20:00:00 10,4 7,8 15 8 24 13 WSW 1018,3 12 0,0
26.04.2018 19:00:00 11,5 8,2 21 11 29 15 WSW 1018,6 - 0,0
26.04.2018 18:00:00 11,7 8,4 24 13 33 18 WSW 1019,1 - 0,0
26.04.2018 17:00:00 12,2 8,5 26 14 34 19 WSW 1019,6 18 0,0
26.04.2018 16:00:00 12,4 8,7 27 14 36 19 WSW 1020,3 - 0,0
26.04.2018 15:00:00 12,5 8,6 25 14 37 20 WSW 1020,4 - 0,0
26.04.2018 14:00:00 12,3 8,4 24 13 34 18 WSW 1020,8 18 0,0
26.04.2018 13:00:00 12,0 7,5 24 13 34 19 WSW 1020,9 - -
26.04.2018 12:00:00 11,8 7,7 24 13 33 18 WSW 1020,8 - 0,0
26.04.2018 11:00:00 11,5 7,8 25 14 34 19 WSW 1020,6 20 0,0
26.04.2018 10:00:00 10,4 7,1 24 13 38 21 W 1020,9 - 0,0
26.04.2018 09:00:00 10,0 5,6 28 15 39 21 W 1020,6 - 0,0
26.04.2018 08:00:00 10,0 6,7 30 16 40 22 W 1020,3 15 0,0
26.04.2018 07:00:00 9,6 6,5 25 14 39 21 W 1019,8 - 0,0
26.04.2018 06:00:00 9,7 7,0 28 15 39 21 W 1019,7 - 0,0
26.04.2018 05:00:00 9,7 6,6 29 16 42 23 W 1019,6 15 0,0
26.04.2018 04:00:00 9,7 6,8 30 16 48 26 W 1019,4 - 0,0
26.04.2018 03:00:00 9,7 6,4 32 17 44 24 W 1019,3 - 0,0
26.04.2018 02:00:00 9,9 7,1 29 16 45 24 W 1019,3 15 0,0
26.04.2018 01:00:00 9,9 7,0 29 16 50 27 W 1019,0 - 0,0
26.04.2018 00:00:00 10,0 7,2 33 18 46 25 W 1018,9 - 0,0
25.04.2018 23:00:00 10,1 7,3 32 17 48 26 W 1018,7 15 0,0
25.04.2018 22:00:00 10,1 7,5 29 16 58 31 W 1018,4 - 0,0
25.04.2018 21:00:00 10,4 7,6 42 23 60 33 W 1017,4 - 0,0
25.04.2018 20:00:00 11,0 8,4 39 21 53 28 WSW 1016,9 15 0,0
25.04.2018 19:00:00 11,5 8,7 39 21 54 29 WSW 1017,2 - 0,0
25.04.2018 18:00:00 11,9 9,1 39 21 52 28 WSW 1017,1 - 0,0
25.04.2018 17:00:00 12,1 9,5 37 20 50 27 WSW 1017,3 15 0,0
25.04.2018 16:00:00 12,4 9,6 37 20 48 26 WSW 1017,5 - 0,0
25.04.2018 15:00:00 12,8 10,0 30 16 41 22 WSW 1017,5 - 0,0
25.04.2018 14:00:00 12,5 9,5 26 14 37 20 SW 1017,5 15 -
25.04.2018 13:00:00 12,2 9,6 26 14 36 19 WSW 1017,4 - 0,0
25.04.2018 12:00:00 12,2 9,4 18 10 45 24 W 1017,4 - 0,0
25.04.2018 11:00:00 10,9 8,6 22 12 33 18 WSW 1017,2 15 0,0
25.04.2018 10:00:00 11,1 8,7 23 12 39 21 WSW 1016,4 - 0,0
25.04.2018 09:00:00 10,7 8,3 24 13 36 19 W 1015,9 - 0,0
25.04.2018 08:00:00 10,1 7,5 24 13 36 19 W 1015,3 15 0,0
25.04.2018 07:00:00 9,8 8,4 24 13 34 18 W 1014,7 - 0,0
25.04.2018 06:00:00 9,7 8,0 22 12 31 17 W 1014,5 - 0,0
25.04.2018 05:00:00 9,9 8,2 20 11 32 17 W 1014,2 15 0,0
25.04.2018 04:00:00 9,9 7,8 25 14 40 22 WNW 1014,2 - 0,0
25.04.2018 03:00:00 10,0 8,6 29 16 44 24 W 1013,8 - 0,0
25.04.2018 02:00:00 10,7 10,4 34 18 50 27 W 1013,3 8 0,0
25.04.2018 01:00:00 10,9 10,4 36 19 49 26 WSW 1013,2 - 0,2
25.04.2018 00:00:00 10,9 10,4 29 16 45 24 SW 1013,4 - 0,4
24.04.2018 23:00:00 11,1 10,5 33 18 48 26 SW 1013,7 8 0,0
24.04.2018 22:00:00 11,2 10,6 35 19 48 26 SW 1013,8 - 0,0
24.04.2018 21:00:00 11,4 10,1 34 19 45 25 WSW 1013,9 - 0,0
24.04.2018 20:00:00 11,6 10,0 29 16 39 21 SW 1014,2 12 0,0
24.04.2018 19:00:00 11,7 9,9 23 12 35 19 SSW 1014,7 - 0,0
24.04.2018 18:00:00 12,3 10,2 27 15 37 20 SSW 1015,0 - 0,0
24.04.2018 17:00:00 11,9 10,1 26 14 45 24 SSW 1015,8 8 0,0
24.04.2018 16:00:00 12,2 10,3 31 17 48 26 S 1016,4 - 0,0
24.04.2018 15:00:00 11,3 10,8 27 15 41 22 S 1017,2 1,5 0,0
24.04.2018 14:00:00 10,9 10,1 26 14 38 20 SSW 1018,1 1,5 0,0
24.04.2018 13:00:00 10,9 10,1 28 15 36 20 SSW 1018,6 - 0,0
24.04.2018 12:00:00 10,7 10,5 27 15 37 20 SSW 1018,8 - 0,0
24.04.2018 11:00:00 10,8 10,6 22 12 36 19 SSW 1019,1 0,2 0,0
24.04.2018 10:00:00 10,7 10,5 27 14 36 19 SSW 1019,0 - 0,0
24.04.2018 09:00:00 10,3 10,1 23 12 33 18 SW 1019,0 - 0,0
24.04.2018 08:00:00 10,3 10,1 25 13 37 20 SW 1018,8 0,2 0,0
24.04.2018 07:00:00 10,2 10,0 24 13 36 20 SW 1018,4 - 0,0
24.04.2018 06:00:00 10,4 9,9 29 16 40 22 SW 1018,7 - 0,0
24.04.2018 05:00:00 10,5 9,6 29 16 42 23 SW 1018,8 15 0,0
24.04.2018 04:00:00 10,6 9,4 34 18 45 24 SW 1018,9 - 0,0
24.04.2018 03:00:00 10,6 9,0 34 19 48 26 SW 1019,3 - 0,0
24.04.2018 02:00:00 10,6 8,7 30 16 40 22 SW 1019,8 14 0,0
24.04.2018 01:00:00 10,3 8,4 31 17 41 22 SW 1020,0 - 0,0
24.04.2018 00:00:00 10,3 8,1 28 15 38 20 SW 1020,4 - 0,0
23.04.2018 23:00:00 10,3 8,4 26 14 34 18 SW 1020,6 16 0,0
23.04.2018 22:00:00 10,2 8,1 22 12 33 18 WSW 1020,5 - 0,0
23.04.2018 21:00:00 10,4 7,6 24 13 34 19 WSW 1020,1 - 0,0
23.04.2018 20:00:00 11,0 7,9 24 13 34 18 WSW 1020,0 16 -
23.04.2018 19:00:00 11,6 8,3 23 12 32 17 SW 1020,3 - 0,0
23.04.2018 18:00:00 11,8 8,6 25 13 32 17 WSW 1020,4 - 0,0
23.04.2018 17:00:00 11,7 8,5 26 14 32 18 WSW 1020,7 16 0,0
23.04.2018 16:00:00 12,3 9,1 23 13 33 18 WSW 1020,9 - -
23.04.2018 15:00:00 11,8 9,0 26 14 32 17 WSW 1021,2 - 0,0
23.04.2018 14:00:00 11,9 9,1 21 11 27 15 SW 1021,1 12 0,0
23.04.2018 13:00:00 11,5 8,7 18 10 24 13 SW 1020,8 - 0,0
23.04.2018 12:00:00 11,3 9,6 18 10 23 12 WSW 1021,0 - 0,0
23.04.2018 11:00:00 11,2 9,5 15 8 20 11 SW 1020,4 14 0,0
23.04.2018 10:00:00 11,0 9,7 15 8 21 12 SW 1019,9 - 0,0
23.04.2018 09:00:00 10,3 8,7 16 9 21 11 WSW 1019,6 - 0,0
23.04.2018 08:00:00 9,9 8,0 12 7 24 13 W 1019,0 - 0,0
23.04.2018 07:00:00 9,7 8,5 16 9 24 13 W 1018,1 - 0,0
23.04.2018 06:00:00 9,7 8,8 16 9 26 14 W 1017,7 - 0,0
23.04.2018 05:00:00 9,8 8,7 18 10 24 13 W 1017,3 14 0,0
23.04.2018 04:00:00 9,8 8,4 16 9 28 15 W 1017,4 - 0,2
23.04.2018 03:00:00 9,8 8,6 16 9 27 15 W 1017,0 - 0,0
23.04.2018 02:00:00 10,0 8,9 20 11 34 18 W 1016,8 14 0,0
23.04.2018 01:00:00 10,2 9,1 23 13 32 18 W 1016,4 - 0,0
23.04.2018 00:00:00 10,2 9,4 21 11 29 16 W 1016,0 - 0,0
22.04.2018 23:00:00 10,2 9,7 20 11 28 15 SW 1015,4 15 0,0
22.04.2018 22:00:00 10,8 10,2 17 9 23 13 SW 1014,9 - 0,0
22.04.2018 21:00:00 10,8 10,0 18 10 23 13 SW 1014,1 - 0,0
22.04.2018 20:00:00 10,7 9,9 16 8 23 12 SW 1013,6 15 0,0
22.04.2018 19:00:00 11,5 10,1 18 10 25 13 WSW 1013,3 - 0,0
22.04.2018 18:00:00 11,0 9,9 20 11 32 17 SW 1013,3 - 0,0
22.04.2018 17:00:00 10,4 9,5 26 14 34 18 WSW 1013,5 6 0,0
22.04.2018 16:00:00 10,9 9,7 26 14 35 19 SSW 1012,7 - 0,0
22.04.2018 15:00:00 10,6 10,1 22 12 33 18 SW 1012,7 - 0,0
22.04.2018 14:00:00 10,5 9,9 23 12 31 17 SW 1012,3 0,2 -
22.04.2018 13:00:00 11,2 10,4 27 15 37 20 WSW 1012,2 - 0,0
22.04.2018 12:00:00 13,5 10,1 26 14 37 20 SSW 1011,8 - -
22.04.2018 11:00:00 13,9 9,9 25 14 34 19 SSW 1011,5 15 0,0
22.04.2018 10:00:00 14,5 9,9 23 12 36 20 SSW 1011,2 - -
22.04.2018 09:00:00 15,1 9,2 22 12 35 19 S 1011,1 - 0,0
22.04.2018 08:00:00 14,3 9,5 23 12 42 23 S 1011,1 10 0,0
22.04.2018 07:00:00 14,4 9,6 26 14 39 21 S 1011,2 - 0,0
22.04.2018 06:00:00 15,0 10,8 18 10 26 14 S 1010,9 - 0,0
22.04.2018 05:00:00 13,9 10,7 14 7 18 10 SSW 1011,5 16 0,0
22.04.2018 04:00:00 14,4 10,8 13 7 21 12 SSW 1012,3 - 0,0
22.04.2018 03:00:00 15,5 11,3 19 10 40 22 SSW 1013,0 - 0,0
22.04.2018 02:00:00 17,1 11,8 22 12 39 21 S 1013,2 18 0,0
22.04.2018 01:00:00 18,7 12,0 26 14 39 21 SSE 1013,2 - 0,0
22.04.2018 00:00:00 18,8 11,4 22 12 37 20 SSE 1013,4 - 0,0
21.04.2018 23:00:00 18,7 11,3 27 14 44 24 SE 1013,7 15 0,0
21.04.2018 22:00:00 17,2 11,7 18 10 23 12 ESE 1013,9 - 0,0
21.04.2018 21:00:00 17,1 12,4 16 9 33 18 ESE 1013,7 - 0,0
21.04.2018 20:00:00 19,1 12,6 24 13 41 22 ESE 1014,4 6 0,0
21.04.2018 19:00:00 17,7 13,4 22 12 - - E 1014,8 - 0,0
21.04.2018 18:00:00 16,8 11,7 25 14 37 20 E 1015,6 - -
21.04.2018 17:00:00 16,8 12,9 - - 27 15 - 1016,3 6 -
21.04.2018 16:00:00 19,8 13,7 22 12 39 21 ESE 1017,1 - -
21.04.2018 15:00:00 16,5 13,0 - - 32 17 - 1017,7 - 0,0
21.04.2018 14:00:00 15,6 12,9 16 9 32 18 E 1018,4 6 -
21.04.2018 13:00:00 16,4 13,3 - - 36 19 - 1018,9 - 0,0
21.04.2018 12:00:00 14,0 12,2 20 11 30 16 E 1019,6 - 0,0
21.04.2018 11:00:00 12,0 10,1 18 10 34 18 E 1019,7 8 1,8
21.04.2018 10:00:00 14,4 11,4 10 5 18 10 E 1020,2 - 0,0
21.04.2018 09:00:00 15,9 11,7 11 6 19 11 E 1020,4 - 0,0
21.04.2018 08:00:00 12,5 10,2 16 8 23 12 E 1020,3 6 0,0

tt = Température de l'air
td = dewpoint
ff = Vitesse du vent
fx = gusts
dd = Direction du vent
ppp = reduced air pressure
vv = visibility
rr = Quantités de précipitations

stations d'obs. à proximité